Regional Weather Roundup
Issued by NWS

Home | Current Version | Previous Version | Graphics & Text | Print | Product List | Glossary On
Versions: 1 2 3 4 5 6 7 8 9 10 11 12 13 14 15 16 17 18 19 20 21 22 23 24 25 26 27 28 29 30 31 32 33 34 35 36 37 38 39 40 41 42 43 44 45 46 47 48 49 50
000
ASUS43 KFSD 280110
RWRSD

WEATHER ROUNDUP FOR SOUTH DAKOTA
NATIONAL WEATHER SERVICE SIOUX FALLS SD
800 PM CDT SUN MAY 27 2018

NOTE: "FAIR" INDICATES FEW OR NO CLOUDS BELOW 12,000 FEET WITH NO
SIGNIFICANT WEATHER AND/OR OBSTRUCTIONS TO VISIBILITY.


SDZ001>005-009-010-012>017-280200-
NORTHWEST AND NORTH CENTRAL SOUTH DAKOTA

CITY           SKY/WX    TMP DP  RH WIND       PRES   REMARKS
BUFFALO          N/A     78  55  44 NE24      29.85
FAITH            N/A     73  61  65 NE12      29.89R
MOBRIDGE       MOSUNNY   81  65  58 N14G24    29.78S
$$

SDZ012>016-024>037-041>051-057-063-072>074-280200-
SOUTHWEST AND SOUTH CENTRAL SOUTH DAKOTA

CITY           SKY/WX    TMP DP  RH WIND       PRES   REMARKS
RAPID CTY ARPT CLOUDY    73  59  61 N12       29.91R
PIERRE         MOSUNNY   82  65  56 N18G26    29.75R
CUSTER         CLOUDY    65  50  58 NE17G25   30.01S
ELLSWORTH AFB  CLOUDY    76  58  54 NE10      29.92R
PHILIP         MOSUNNY   79  64  60 N16       29.80F
PINE RIDGE     CLOUDY    76  63  64 NE15      29.84R
SPEARFISH      FAIR      72  57  60 NE9       29.98R
WINNER         FAIR      85  70  60 NE5       29.77S
$$

SDZ004>011-016>023-039-040-280200-
NORTHEAST SOUTH DAKOTA

CITY           SKY/WX    TMP DP  RH WIND       PRES   REMARKS
ABERDEEN       SUNNY     85  65  51 N23G35    29.72R
WATERTOWN      MOCLDY    87  58  37 S18       29.75S
BROOKINGS      PTCLDY    88  63  43 S9        29.77S
SISSETON         N/A     89  66  46 S3        29.70R
$$

SDZ017-020-022-023-036>040-048>070-280200-
SOUTHEAST SOUTH DAKOTA

CITY           SKY/WX    TMP DP  RH WIND       PRES   REMARKS
SIOUX FALLS    MOCLDY    87  60  40 S8        29.77S
HURON          CLEAR     91  57  31 S13G24    29.71R
CHAMBERLAIN    MOSUNNY   90  71  52 CALM      29.74F HX  96
MITCHELL       PTCLDY    90  62  39 S10       29.73S
YANKTON        PTCLDY    93  60  33 S8        29.77R
$$

ABBREVIATIONS USED IN REMARKS
   TC - TEMPERATURE IN CELSIUS
  WCI - WIND CHILL INDEX
   HX - HEAT INDEX
  VSB - VISIBILITY




USA.gov is the U.S. government's official web portal to all federal, state and local government web resources and services.